Location: Gunung Kajang
(2.4167°N, 113.7167°E)
Time: 15:14:09
(UTC+00:00)

Tsikada Rocket - Pass Details

Date: 29 May 2022
Orbit: 957 x 1010 km, 82.9° (Epoch: 28 June)

Event Time Altitude Azimuth Distance (km) Brightness Sun altitude
Rises 12:22:11 0° 350° (N) 3,644 7.5 -26.6°
Reaches altitude 10° 12:24:43 10° 347° (NNW) 2,693 6.8 -27.1°
Maximum altitude 12:30:46 62° 267° (W) 1,070 4.3 -28.5°
Enters shadow 12:33:24 34° 200° (SSW) 1,517 4.9 -29.1°
